Location: Reutlingen
(48.4911°N, 9.2587°E)
Time: 16:24:42
(UTC+01:00)

Envisat - Visible Passes

Search period start: 23 January 2018 00:00
Search period end: 02 February 2018 00:00
Orbit: 764 x 766 km, 98.2° (Epoch: 23 January)

Date Brightness Start Highest point End Pass type
(mag) Time Alt. Az. Time Alt. Az. Time Alt. Az.
23 Jan 4.7 17:55:51 10° ENE 17:57:46 12° NE 17:59:41 10° NNE visible
23 Jan 2.9 19:35:58 67° ENE 19:35:58 67° ENE 19:40:56 10° N visible
23 Jan 5.5 21:16:09 18° WNW 21:16:09 18° WNW 21:18:52 10° NW visible
24 Jan 3.6 18:58:32 32° E 18:59:20 34° ENE 19:03:53 10° N visible
24 Jan 4.4 20:38:43 36° W 20:38:43 36° W 20:43:01 10° NNW visible
25 Jan 4.3 18:21:06 15° E 18:22:59 19° ENE 18:26:26 10° NNE visible
25 Jan 3.0 20:01:17 74° WSW 20:01:27 75° WSW 20:06:33 10° NNW visible
25 Jan 6.0 21:41:28 11° W 21:41:28 11° W 21:42:23 10° WNW visible
26 Jan 3.0 19:23:50 48° ESE 19:24:46 55° ENE 19:29:44 10° N visible
26 Jan 5.1 21:04:01 22° W 21:04:08 22° W 21:08:06 10° NW visible
27 Jan 3.8 18:46:24 22° E 18:48:17 29° ENE 18:52:36 10° N visible
27 Jan 3.9 20:26:34 43° WSW 20:27:07 45° W 20:32:00 10° NNW visible
28 Jan 4.5 18:09:03 10° E 18:12:00 16° NE 18:14:56 10° NNE visible
28 Jan 2.9 19:49:07 54° SSE 19:50:18 89° ENE 19:55:26 10° NNW visible
28 Jan 5.7 21:29:18 13° W 21:30:03 13° W 21:32:31 10° WNW visible
29 Jan 3.2 19:11:38 30° ESE 19:13:41 45° ENE 19:18:31 10° N visible
29 Jan 4.8 20:51:49 25° WSW 20:52:53 27° W 20:57:14 10° NW visible
30 Jan 6.3 07:16:14 10° ENE 07:17:46 11° E 07:19:18 10° ESE visible
30 Jan 4.0 18:34:10 14° ESE 18:37:15 24° ENE 18:41:16 10° N visible
30 Jan 3.5 20:14:21 39° SSW 20:15:56 56° W 20:20:57 10° NNW visible
31 Jan 4.7 17:58:46 10° E 18:01:01 13° NE 18:03:17 10° NNE visible
31 Jan 2.8 19:36:52 33° SSE 19:39:11 73° ENE 19:44:17 10° N visible
31 Jan 5.5 21:17:03 14° WSW 21:18:46 17° W 21:22:00 10° NW visible
01 Feb 3.5 18:59:22 18° ESE 19:02:37 37° ENE 19:07:16 10° N visible
01 Feb 4.5 20:39:34 24° SW 20:41:40 33° W 20:46:17 10° NNW visible
